Wind_Speed
30 29 29 29 30 30 30 29 28 26 26 25 24 23 22 22 21 21 21 21 20 20 20 20 20 19 19 18 18 18 18 18 17 16 16 15 15 15 16 16 17 17 17 18
30 29 29 29 29 30 30 30 30 29 28 26 25 25 24 23 23 22 23 22 22 22 22 22 22 21 21 19 19 18 19 19 19 18 18 18 17 18 18 18 18 18 19 19
29 30 29 30 30 30 30 30 29 29 29 27 27 26 26 25 24 24 23 23 23 23 23 23 23 23 22 20 20 20 20 20 20 19 20 20 20 20 20 20 19 20 20 20
29 30 30 31 30 30 31 31 30 30 29 28 27 27 26 26 26 25 24 24 25 25 24 24 25 24 24 22 22 22 22 22 22 21 21 22 22 22 23 23 22 21 21 21
31 30 31 32 30 29 30 31 30 30 29 29 28 28 28 28 28 28 27 26 27 27 27 26 26 26 26 25 25 24 24 24 25 25 24 25 24 23 24 24 23 23 23 24
33 31 31 33 31 30 29 32 31 31 31 30 30 30 30 30 30 30 29 29 29 30 29 29 29 29 28 28 28 28 28 28 26 26 27 26 25 25 25 25 26 25 25 25
33 33 33 35 33 32 32 33 32 32 32 32 32 32 32 31 31 31 31 31 31 31 31 30 30 30 30 30 30 30 30 30 29 28 28 28 28 28 28 27 27 27 27 27
34 34 35 36 34 34 34 34 34 33 33 33 33 33 33 33 32 32 33 33 32 32 32 32 32 31 31 31 31 31 31 31 30 30 31 31 31 30 29 29 29 28 29 29
35 35 35 34 35 35 35 35 35 34 34 34 34 35 34 34 34 34 34 34 33 33 34 33 34 34 33 33 33 34 33 33 33 33 32 32 32 31 30 30 30 31 31 30
35 35 34 34 34 35 36 36 36 36 36 36 35 35 35 34 35 35 35 35 35 35 35 35 35 35 36 35 35 36 35 36 34 34 33 32 33 32 31 31 31 31 31 31
35 35 35 35 34 34 34 35 36 36 37 36 36 35 35 35 35 35 35 36 36 37 37 37 36 37 37 37 38 37 37 37 36 36 35 35 34 33 33 33 33 33 33 32
35 34 35 35 35 34 34 34 35 36 36 36 37 37 36 35 35 35 35 35 36 36 37 37 37 37 38 38 38 38 38 37 37 37 36 36 36 35 35 35 35 34 34 33
34 34 34 34 34 34 34 35 35 36 36 36 36 36 36 35 35 35 35 35 35 36 36 37 37 37 37 38 39 39 39 39 38 38 37 37 37 36 35 35 35 34 34 34
33 34 34 33 33 33 34 35 35 35 35 35 34 34 35 35 35 35 35 35 35 36 36 37 38 38 38 38 39 39 39 39 37 37 36 36 36 36 35 35 35 35 35 35
31 32 32 33 33 32 33 34 34 34 34 33 33 33 33 34 34 34 35 35 35 35 36 37 37 37 38 38 38 38 39 39 38 36 35 35 35 35 34 34 35 36 36 36
29 30 31 31 31 31 32 32 33 33 32 32 31 31 32 32 32 33 33 34 33 33 34 34 35 35 36 36 36 37 37 37 36 35 35 35 34 35 35 35 36 36 36 36
27 28 28 28 29 30 30 30 30 30 29 29 29 30 30 30 30 31 32 32 33 33 33 33 33 33 34 35 36 36 36 35 35 36 36 35 35 35 35 35 36 37 36 36
25 25 25 25 26 27 28 28 27 27 27 28 29 29 29 29 29 30 31 32 33 33 33 33 33 33 34 34 35 35 35 34 35 35 34 35 34 34 34 35 35 36 35 35
21 21 22 24 24 24 25 26 26 25 25 26 28 28 28 28 28 29 30 31 31 32 32 32 32 32 33 33 33 32 32 33 34 33 33 33 33 33 33 33 33 34 35 35
20 21 22 23 23 23 23 24 23 23 24 25 25 26 26 27 28 29 29 30 31 31 30 30 30 30 31 30 30 30 31 31 31 31 31 32 32 33 33 33 33 33 34 33
18 19 20 21 21 21 21 22 21 21 22 23 24 24 25 25 27 28 28 28 27 27 27 28 29 29 28 28 28 28 29 29 29 29 30 31 31 32 33 33 33 33 33 33
16 16 16 18 19 20 20 20 20 20 19 20 20 21 22 23 24 24 24 24 23 24 25 26 26 26 26 26 27 28 28 28 28 28 29 29 29 30 31 32 32 32 32 32
13 13 14 15 17 17 17 17 17 18 17 18 18 19 18 19 19 20 20 20 20 20 21 22 23 23 23 24 25 26 26 26 27 27 27 28 28 29 30 31 31 31 31 30
11 11 11 12 12 13 13 14 14 14 14 15 14 14 14 14 15 15 16 16 17 18 19 19 20 21 21 22 23 24 24 25 26 26 26 27 27 28 29 29 29 28 27 27
9 8 8 9 9 10 10 10 10 11 12 12 12 12 11 12 13 13 14 14 15 15 16 17 18 18 19 20 21 21 22 22 23 23 23 24 24 25 25 25 25 25 26 26
8 8 7 7 7 7 7 8 8 9 9 9 9 9 10 10 11 11 12 12 13 14 15 16 16 17 18 18 18 19 20 20 20 20 21 21 22 23 23 23 24 24 25 25
8 8 7 7 7 6 6 6 7 7 8 9 8 9 9 10 10 11 11 11 12 12 13 14 15 15 16 17 18 18 19 19 19 20 20 21 22 23 23 24 24 25 25 25
Wind_Direction
233 235 240 243 244 244 244 244 247 251 254 256 259 260 260 259 258 259 261 264 268 271 272 275 277 280 284 284 284 284 287 290 291 291 294 297 297 296 295 295 295 296 298 300
237 238 240 243 244 245 246 247 249 251 255 257 257 258 258 260 260 259 260 263 266 268 269 271 274 276 277 278 280 281 283 285 285 285 287 291 293 294 292 293 293 294 295 297
239 241 242 243 242 243 245 246 248 251 254 256 258 258 257 257 258 258 259 261 262 264 266 267 269 272 272 274 278 281 283 284 288 284 285 288 289 290 288 290 290 291 293 295
241 243 244 244 244 243 244 246 248 250 253 255 256 257 256 255 256 257 258 259 259 261 265 266 267 270 272 272 275 279 281 281 283 283 283 284 285 285 286 286 287 288 290 293
241 245 246 247 245 244 245 247 248 250 252 254 256 257 256 255 256 258 259 259 258 259 262 265 265 266 268 270 274 277 280 283 283 281 281 283 284 283 285 287 288 289 289 290
242 243 247 250 248 247 248 249 248 249 252 254 256 257 257 257 258 259 260 261 260 260 261 262 264 266 266 269 271 274 277 278 279 280 281 282 286 286 285 286 287 288 289 288
245 247 248 249 249 249 249 250 250 251 253 255 256 257 258 258 259 258 259 260 260 261 261 262 263 265 266 268 270 273 274 274 274 278 280 282 284 285 284 284 285 286 286 287
245 247 249 250 250 249 251 252 253 253 254 255 257 258 259 259 259 259 259 259 260 261 261 262 263 264 265 267 268 270 273 274 276 277 278 279 281 282 281 282 282 285 285 285
245 247 250 252 252 251 252 252 253 255 255 257 258 259 260 260 259 260 261 260 260 260 261 261 262 263 265 266 266 267 271 273 275 276 277 276 278 279 279 280 281 284 285 283
247 247 249 252 252 252 252 253 254 255 256 257 258 259 260 261 261 262 261 260 259 260 261 261 262 263 263 265 268 268 269 271 272 275 275 276 277 277 278 280 281 285 285 284
248 249 250 251 252 252 253 253 254 255 256 257 258 260 260 260 260 260 260 259 259 259 261 262 262 263 264 264 266 269 269 270 270 272 273 275 274 274 276 277 280 281 283 283
248 249 251 251 252 251 252 253 254 255 256 257 259 259 259 259 260 260 259 259 259 259 260 261 262 262 263 264 265 266 267 270 270 271 270 271 272 273 276 278 279 280 281 281
249 249 250 251 251 251 252 253 254 256 257 259 260 260 259 259 259 259 259 259 260 260 260 262 263 263 264 265 265 266 267 268 268 270 270 270 271 274 276 278 279 279 279 281
249 247 247 249 250 251 252 253 255 256 257 259 260 259 258 257 258 259 259 260 261 261 261 262 262 263 263 265 266 267 267 267 267 268 269 269 271 272 274 276 278 279 280 282
251 250 250 250 251 251 251 252 253 256 258 259 259 258 257 257 257 259 260 261 262 262 262 262 263 263 264 264 265 265 265 266 266 269 270 270 271 272 272 275 277 280 281 282
253 253 252 251 251 252 253 255 256 258 259 260 260 259 256 256 257 259 260 261 263 263 263 263 263 265 267 265 263 263 265 266 266 268 269 270 272 273 274 276 278 280 281 280
251 252 252 252 253 253 254 255 257 258 258 258 260 260 259 258 259 260 261 262 263 263 263 262 263 266 266 264 263 263 264 266 266 267 269 270 271 272 275 276 278 279 279 280
251 248 247 250 252 251 251 255 258 259 258 258 259 260 260 260 260 261 261 261 262 262 263 263 264 265 265 265 263 262 262 264 265 267 267 268 270 272 274 276 278 279 279 281
249 246 247 248 251 253 253 255 258 259 258 259 260 259 260 261 260 261 261 262 263 262 262 263 264 265 265 264 264 263 263 265 266 268 270 271 273 275 277 278 279 281 282 282
249 248 248 249 250 251 252 254 257 259 259 260 260 260 261 261 261 262 262 262 262 262 262 262 262 263 264 265 264 264 265 266 267 270 272 274 275 276 277 278 280 282 284 284
250 248 250 252 250 250 252 254 256 259 260 260 261 263 262 260 261 263 261 260 259 258 258 258 258 260 262 262 263 264 265 267 268 270 272 275 276 276 277 279 280 283 284 285
252 249 253 252 252 252 253 255 256 257 258 259 262 263 260 259 259 259 258 258 255 256 258 258 258 259 260 261 263 265 267 268 270 272 274 275 277 278 279 281 282 283 284 286
252 253 255 253 250 250 252 254 257 259 259 259 260 260 258 257 258 257 257 259 258 258 260 261 260 260 261 263 265 268 270 272 274 275 277 278 279 281 282 283 283 285 286 286
251 250 251 253 251 249 252 255 257 257 260 260 261 261 259 261 263 262 262 266 266 263 263 263 263 263 265 268 267 269 273 276 277 278 279 280 282 284 285 286 288 288 289 288
247 251 252 256 258 256 253 251 250 251 258 263 265 263 262 266 268 266 267 269 269 265 264 266 267 267 269 272 272 273 276 279 281 282 285 286 288 289 290 291 291 290 290 291
252 250 253 254 255 259 257 252 251 253 257 260 260 260 264 270 274 274 273 272 269 270 271 272 272 273 275 276 278 281 285 287 289 291 292 293 293 293 293 292 291 292 292 291
251 249 244 243 247 256 263 262 264 264 262 260 261 265 269 273 276 277 278 280 280 277 276 277 278 280 280 282 284 287 289 292 294 296 295 295 295 295 295 294 293 294 294 295
Height
5862 5865 5868 5870 5872 5875 5878 5881 5884 5886 5887 5888 5889 5890 5891 5891 5892 5893 5893 5893 5893 5893 5893 5892 5891 5890 5889 5888 5887 5886 5884 5883 5882 5881 5880 5879 5878 5876 5875 5874 5872 5871 5870 5868
5855 5858 5860 5863 5866 5868 5871 5873 5876 5878 5880 5881 5882 5883 5884 5885 5886 5886 5887 5887 5887 5887 5887 5887 5886 5885 5884 5883 5882 5881 5880 5879 5877 5876 5875 5874 5873 5872 5871 5869 5868 5866 5865 5864
5849 5851 5853 5856 5859 5861 5863 5866 5868 5870 5872 5873 5875 5876 5877 5878 5879 5880 5880 5881 5881 5881 5881 5881 5880 5879 5878 5877 5877 5876 5875 5874 5872 5871 5870 5869 5868 5867 5865 5864 5862 5861 5860 5858
5841 5844 5846 5850 5851 5854 5856 5858 5860 5862 5864 5866 5867 5869 5870 5871 5872 5873 5874 5874 5874 5874 5874 5874 5874 5873 5873 5872 5872 5871 5870 5869 5868 5866 5865 5864 5862 5861 5860 5858 5857 5855 5854 5852
5834 5836 5838 5841 5843 5846 5848 5850 5853 5854 5856 5858 5859 5861 5862 5863 5864 5865 5866 5866 5867 5867 5867 5867 5867 5867 5866 5866 5866 5865 5864 5863 5861 5860 5859 5857 5856 5854 5853 5852 5851 5850 5848 5846
5825 5828 5831 5833 5835 5838 5841 5842 5844 5846 5848 5850 5851 5852 5854 5854 5855 5856 5857 5858 5858 5859 5859 5859 5859 5859 5859 5859 5859 5858 5857 5855 5854 5853 5852 5850 5849 5849 5847 5846 5845 5843 5842 5840
5816 5819 5822 5823 5826 5829 5833 5834 5835 5837 5839 5841 5842 5843 5845 5845 5846 5847 5848 5849 5850 5850 5850 5851 5851 5851 5851 5851 5851 5851 5849 5848 5847 5846 5845 5844 5843 5842 5840 5839 5838 5837 5835 5833
5807 5810 5814 5814 5816 5820 5822 5824 5825 5827 5829 5831 5832 5833 5835 5836 5837 5838 5839 5840 5840 5841 5841 5841 5842 5842 5842 5843 5843 5842 5841 5840 5839 5839 5838 5837 5836 5834 5833 5831 5830 5829 5827 5826
5798 5802 5802 5804 5806 5809 5811 5813 5815 5817 5819 5820 5822 5823 5825 5826 5827 5828 5829 5830 5831 5831 5832 5832 5832 5833 5833 5833 5833 5832 5832 5832 5831 5830 5829 5828 5827 5826 5824 5824 5822 5820 5819 5817
5788 5790 5792 5794 5796 5798 5800 5803 5805 5806 5808 5810 5811 5813 5814 5815 5816 5817 5818 5819 5820 5821 5821 5822 5822 5822 5823 5823 5822 5822 5823 5823 5822 5821 5820 5819 5818 5817 5816 5815 5814 5812 5810 5808
5777 5780 5782 5784 5786 5788 5790 5792 5794 5795 5797 5799 5800 5802 5803 5804 5805 5806 5807 5808 5809 5810 5810 5811 5812 5812 5812 5813 5813 5812 5812 5812 5812 5811 5810 5809 5807 5807 5807 5806 5805 5803 5802 5800
5767 5770 5772 5774 5776 5778 5780 5782 5783 5784 5786 5787 5789 5790 5792 5793 5794 5795 5796 5797 5798 5799 5799 5800 5801 5801 5801 5802 5802 5802 5802 5801 5800 5800 5799 5798 5797 5797 5797 5796 5795 5794 5792 5791
5757 5759 5761 5763 5765 5767 5769 5771 5772 5774 5775 5776 5777 5779 5780 5782 5783 5784 5785 5786 5787 5788 5789 5790 5790 5791 5791 5790 5791 5791 5791 5790 5789 5789 5788 5788 5788 5788 5787 5786 5785 5783 5782 5781
5746 5748 5750 5753 5754 5756 5758 5760 5761 5762 5763 5765 5766 5767 5769 5770 5772 5773 5774 5775 5776 5777 5778 5778 5779 5780 5780 5780 5780 5779 5779 5779 5778 5778 5777 5777 5777 5777 5776 5775 5774 5773 5772 5770
5735 5737 5740 5742 5744 5746 5748 5749 5751 5752 5753 5754 5755 5756 5757 5759 5761 5762 5763 5764 5765 5766 5766 5767 5767 5767 5768 5768 5768 5768 5768 5768 5768 5767 5767 5767 5766 5766 5765 5764 5763 5762 5761 5760
5726 5727 5729 5732 5734 5736 5738 5739 5741 5742 5742 5743 5744 5745 5747 5748 5750 5752 5753 5754 5755 5756 5756 5756 5756 5756 5756 5756 5756 5756 5757 5757 5757 5757 5756 5756 5755 5755 5755 5754 5753 5751 5750 5748
5716 5718 5721 5723 5725 5727 5728 5730 5731 5732 5732 5734 5735 5736 5737 5738 5740 5742 5743 5743 5744 5745 5745 5745 5746 5746 5746 5746 5746 5746 5746 5746 5747 5746 5746 5745 5745 5745 5744 5743 5742 5740 5739 5737
5708 5710 5712 5714 5716 5718 5719 5721 5722 5723 5724 5725 5726 5727 5728 5729 5730 5732 5732 5733 5733 5734 5735 5735 5736 5736 5736 5735 5735 5735 5736 5736 5736 5736 5735 5735 5735 5735 5734 5733 5731 5730 5728 5726
5700 5702 5704 5706 5708 5709 5711 5712 5713 5714 5715 5716 5717 5718 5719 5720 5721 5722 5722 5722 5723 5724 5725 5725 5725 5725 5725 5725 5725 5725 5726 5726 5726 5726 5726 5725 5725 5724 5723 5722 5721 5719 5717 5715
5694 5695 5697 5699 5700 5702 5703 5704 5705 5706 5707 5708 5709 5710 5711 5711 5712 5712 5712 5712 5713 5713 5714 5714 5715 5715 5715 5715 5716 5716 5716 5717 5717 5716 5716 5715 5714 5714 5713 5712 5710 5708 5706 5704
5687 5689 5691 5692 5694 5695 5696 5697 5698 5699 5700 5700 5701 5702 5702 5703 5703 5703 5703 5702 5703 5703 5704 5705 5706 5706 5706 5706 5707 5707 5707 5707 5707 5707 5707 5706 5705 5704 5703 5702 5700 5698 5696 5694
5683 5684 5685 5686 5688 5689 5690 5691 5692 5693 5693 5694 5695 5695 5695 5695 5695 5695 5694 5694 5694 5695 5696 5697 5697 5698 5698 5698 5699 5699 5699 5699 5698 5698 5697 5696 5695 5694 5693 5691 5689 5688 5686 5684
5679 5680 5681 5682 5682 5683 5684 5685 5686 5687 5687 5688 5688 5689 5688 5688 5688 5689 5689 5689 5688 5689 5690 5690 5690 5690 5691 5691 5691 5691 5691 5691 5690 5689 5688 5687 5686 5684 5683 5681 5680 5678 5676 5674
5676 5677 5678 5678 5678 5679 5679 5681 5682 5683 5683 5683 5683 5683 5683 5683 5683 5683 5683 5683 5683 5683 5684 5683 5684 5684 5685 5684 5684 5684 5684 5683 5682 5681 5679 5678 5677 5675 5674 5672 5670 5668 5666 5665
5674 5675 5675 5675 5676 5676 5676 5677 5678 5679 5679 5679 5679 5679 5679 5679 5679 5679 5679 5679 5679 5679 5679 5679 5679 5679 5679 5679 5678 5677 5677 5676 5674 5673 5671 5670 5668 5667 5665 5663 5662 5660 5658 5656
5672 5673 5673 5674 5674 5674 5674 5675 5676 5676 5677 5677 5677 5676 5676 5676 5676 5676 5676 5675 5675 5675 5675 5674 5674 5674 5673 5673 5672 5671 5670 5669 5667 5666 5664 5663 5661 5660 5658 5656 5654 5652 5650 5648
5671 5671 5672 5672 5673 5673 5673 5674 5674 5674 5675 5675 5675 5674 5674 5674 5674 5673 5673 5672 5671 5671 5670 5670 5669 5669 5668 5667 5666 5666 5664 5663 5661 5660 5658 5656 5655 5653 5651 5649 5647 5645 5642 5640